owner,sensor,date,latitude,longitude,vertical_datum,sea_water_practical_salinity,qcFlag 
TABS,ioos:station:wmo:42048:1,2016-01-01T00:00:00Z,27.9396,-96.8429,2.0,32.2523,11111222 
TABS,ioos:station:wmo:42048:1,2016-01-01T00:30:00Z,27.9396,-96.8429,2.0,32.3586,11111222 
TABS,ioos:station:wmo:42048:1,2016-01-01T01:00:00Z,27.9396,-96.8429,2.0,32.6447,11111222 
TABS,ioos:station:wmo:42048:1,2016-01-01T01:30:00Z,27.9396,-96.8429,2.0,32.8289,11111222 
TABS,ioos:station:wmo:42048:1,2016-01-01T02:00:00Z,27.9396,-96.8429,2.0,32.8922,11111222 
TABS,ioos:station:wmo:42048:1,2016-01-01T02:30:00Z,27.9396,-96.8429,2.0,32.9404,11111222 
TABS,ioos:station:wmo:42048:1,2016-01-01T03:00:00Z,27.9396,-96.8429,2.0,33.0403,11111222 
TABS,ioos:station:wmo:42048:1,2016-01-01T03:30:00Z,27.9396,-96.8429,2.0,33.085,11111222 
TABS,ioos:station:wmo:42048:1,2016-01-01T04:00:00Z,27.9396,-96.8429,2.0,33.1018,11111222 
TABS,ioos:station:wmo:42048:1,2016-01-01T04:30:00Z,27.9396,-96.8429,2.0,33.148,11111222 
TABS,ioos:station:wmo:42048:1,2016-01-01T05:00:00Z,27.9396,-96.8429,2.0,33.1478,11111222 
TABS,ioos:station:wmo:42048:1,2016-01-01T05:30:00Z,27.9396,-96.8429,2.0,33.1179,11111222 
TABS,ioos:station:wmo:42048:1,2016-01-01T06:00:00Z,27.9396,-96.8429,2.0,33.0972,11111222 
TABS,ioos:station:wmo:42048:1,2016-01-01T06:30:00Z,27.9396,-96.8429,2.0,33.0857,11111222 
TABS,ioos:station:wmo:42048:1,2016-01-01T07:00:00Z,27.9396,-96.8429,2.0,33.0615,11111222 
TABS,ioos:station:wmo:42048:1,2016-01-01T07:30:00Z,27.9396,-96.8429,2.0,32.9789,11111222 
TABS,ioos:station:wmo:42048:1,2016-01-01T08:00:00Z,27.9396,-96.8429,2.0,32.9341,11111222 
TABS,ioos:station:wmo:42048:1,2016-01-01T08:30:00Z,27.9396,-96.8429,2.0,32.9025,11111222 
TABS,ioos:station:wmo:42048:1,2016-01-01T09:00:00Z,27.9396,-96.8429,2.0,32.8939,11111222 
TABS,ioos:station:wmo:42048:1,2016-01-01T09:30:00Z,27.9396,-96.8429,2.0,32.8781,11111222 
TABS,ioos:station:wmo:42048:1,2016-01-01T10:00:00Z,27.9396,-96.8429,2.0,32.9058,11111222 
TABS,ioos:station:wmo:42048:1,2016-01-01T10:30:00Z,27.9396,-96.8429,2.0,32.9151,11111222 
TABS,ioos:station:wmo:42048:1,2016-01-01T11:00:00Z,27.9396,-96.8429,2.0,32.9168,11111222 
TABS,ioos:station:wmo:42048:1,2016-01-01T11:30:00Z,27.9396,-96.8429,2.0,32.9073,11111222 
TABS,ioos:station:wmo:42048:1,2016-01-01T12:00:00Z,27.9396,-96.8429,2.0,32.9238,11111222 
TABS,ioos:station:wmo:42048:1,2016-01-01T12:30:00Z,27.9396,-96.8429,2.0,32.917,11111222 
TABS,ioos:station:wmo:42048:1,2016-01-01T13:00:00Z,27.9396,-96.8429,2.0,32.9037,11111222 
TABS,ioos:station:wmo:42048:1,2016-01-01T13:30:00Z,27.9396,-96.8429,2.0,32.8885,11111222 
TABS,ioos:station:wmo:42048:1,2016-01-01T14:00:00Z,27.9396,-96.8429,2.0,32.8639,11111222 
TABS,ioos:station:wmo:42048:1,2016-01-01T14:30:00Z,27.9396,-96.8429,2.0,32.8359,11111222 
TABS,ioos:station:wmo:42048:1,2016-01-01T15:00:00Z,27.9396,-96.8429,2.0,32.8315,11111222 
TABS,ioos:station:wmo:42048:1,2016-01-01T15:30:00Z,27.9396,-96.8429,2.0,32.8297,11111222 
TABS,ioos:station:wmo:42048:1,2016-01-01T16:00:00Z,27.9396,-96.8429,2.0,32.8087,11111222 
TABS,ioos:station:wmo:42048:1,2016-01-01T16:30:00Z,27.9396,-96.8429,2.0,32.7732,11111222 
TABS,ioos:station:wmo:42048:1,2016-01-01T17:00:00Z,27.9396,-96.8429,2.0,32.7497,11111222 
TABS,ioos:station:wmo:42048:1,2016-01-01T17:30:00Z,27.9396,-96.8429,2.0,32.7174,11111222 
TABS,ioos:station:wmo:42048:1,2016-01-01T18:00:00Z,27.9396,-96.8429,2.0,32.6928,11111222 
TABS,ioos:station:wmo:42048:1,2016-01-01T18:30:00Z,27.9396,-96.8429,2.0,32.669,11111222 
TABS,ioos:station:wmo:42048:1,2016-01-01T19:00:00Z,27.9396,-96.8429,2.0,32.6487,11111222 
TABS,ioos:station:wmo:42048:1,2016-01-01T19:30:00Z,27.9396,-96.8429,2.0,32.6229,11111222 
TABS,ioos:station:wmo:42048:1,2016-01-01T20:00:00Z,27.9396,-96.8429,2.0,32.6102,11111222 
TABS,ioos:station:wmo:42048:1,2016-01-01T20:30:00Z,27.9396,-96.8429,2.0,32.5811,11111222 
TABS,ioos:station:wmo:42048:1,2016-01-01T21:00:00Z,27.9396,-96.8429,2.0,32.5653,11111222 
TABS,ioos:station:wmo:42048:1,2016-01-01T21:30:00Z,27.9396,-96.8429,2.0,32.553,11111222 
TABS,ioos:station:wmo:42048:1,2016-01-01T22:00:00Z,27.9396,-96.8429,2.0,32.5493,11111222 
TABS,ioos:station:wmo:42048:1,2016-01-01T22:30:00Z,27.9396,-96.8429,2.0,32.5433,11111222 
TABS,ioos:station:wmo:42048:1,2016-01-01T23:00:00Z,27.9396,-96.8429,2.0,32.5239,11111222 
TABS,ioos:station:wmo:42048:1,2016-01-01T23:30:00Z,27.9396,-96.8429,2.0,32.5009,11111222 
TABS,ioos:station:wmo:42048:1,2016-01-02T00:00:00Z,27.9396,-96.8429,2.0,32.4651,11111222 
TABS,ioos:station:wmo:42048:1,2016-01-02T00:30:00Z,27.9396,-96.8429,2.0,32.3695,11111222 
TABS,ioos:station:wmo:42048:1,2016-01-02T01:00:00Z,27.9396,-96.8429,2.0,32.3296,11111222 
TABS,ioos:station:wmo:42048:1,2016-01-02T01:30:00Z,27.9396,-96.8429,2.0,32.3118,11111222 
TABS,ioos:station:wmo:42048:1,2016-01-02T02:00:00Z,27.9396,-96.8429,2.0,32.2807,11111222 
TABS,ioos:station:wmo:42048:1,2016-01-02T02:30:00Z,27.9396,-96.8429,2.0,32.2429,11111222 
TABS,ioos:station:wmo:42048:1,2016-01-02T03:00:00Z,27.9396,-96.8429,2.0,32.2427,11111222 
TABS,ioos:station:wmo:42048:1,2016-01-02T03:30:00Z,27.9396,-96.8429,2.0,32.2704,11111222 
TABS,ioos:station:wmo:42048:1,2016-01-02T04:00:00Z,27.9396,-96.8429,2.0,32.321,11111222 
TABS,ioos:station:wmo:42048:1,2016-01-02T04:30:00Z,27.9396,-96.8429,2.0,32.3463,11111222 
TABS,ioos:station:wmo:42048:1,2016-01-02T05:00:00Z,27.9396,-96.8429,2.0,32.4809,11111222 
TABS,ioos:station:wmo:42048:1,2016-01-02T05:30:00Z,27.9396,-96.8429,2.0,32.5528,11111222 
TABS,ioos:station:wmo:42048:1,2016-01-02T06:00:00Z,27.9396,-96.8429,2.0,32.5158,11111222 
TABS,ioos:station:wmo:42048:1,2016-01-02T06:30:00Z,27.9396,-96.8429,2.0,32.5287,11111222 
TABS,ioos:station:wmo:42048:1,2016-01-02T07:00:00Z,27.9396,-96.8429,2.0,32.5257,11111222 
TABS,ioos:station:wmo:42048:1,2016-01-02T07:30:00Z,27.9396,-96.8429,2.0,32.5185,11111222 
TABS,ioos:station:wmo:42048:1,2016-01-02T08:00:00Z,27.9396,-96.8429,2.0,32.5993,11111222 
TABS,ioos:station:wmo:42048:1,2016-01-02T08:30:00Z,27.9396,-96.8429,2.0,32.4391,11111222 
TABS,ioos:station:wmo:42048:1,2016-01-02T09:00:00Z,27.9396,-96.8429,2.0,32.3668,11111222 
TABS,ioos:station:wmo:42048:1,2016-01-02T09:30:00Z,27.9396,-96.8429,2.0,32.2958,11111222 
TABS,ioos:station:wmo:42048:1,2016-01-02T10:00:00Z,27.9396,-96.8429,2.0,32.2748,11111222 
TABS,ioos:station:wmo:42048:1,2016-01-02T10:30:00Z,27.9396,-96.8429,2.0,32.2512,11111222 
TABS,ioos:station:wmo:42048:1,2016-01-02T11:00:00Z,27.9396,-96.8429,2.0,32.2661,11111222 
TABS,ioos:station:wmo:42048:1,2016-01-02T11:30:00Z,27.9396,-96.8429,2.0,32.3231,11111222 
TABS,ioos:station:wmo:42048:1,2016-01-02T12:00:00Z,27.9396,-96.8429,2.0,32.3264,11111222 
TABS,ioos:station:wmo:42048:1,2016-01-02T12:30:00Z,27.9396,-96.8429,2.0,32.3184,11111222 
TABS,ioos:station:wmo:42048:1,2016-01-02T13:00:00Z,27.9396,-96.8429,2.0,32.4329,11111222 
TABS,ioos:station:wmo:42048:1,2016-01-02T13:30:00Z,27.9396,-96.8429,2.0,32.4035,11111222 
TABS,ioos:station:wmo:42048:1,2016-01-02T14:00:00Z,27.9396,-96.8429,2.0,32.3573,11111222 
TABS,ioos:station:wmo:42048:1,2016-01-02T14:30:00Z,27.9396,-96.8429,2.0,32.3508,11111222 
TABS,ioos:station:wmo:42048:1,2016-01-02T15:00:00Z,27.9396,-96.8429,2.0,32.3388,11111222 
TABS,ioos:station:wmo:42048:1,2016-01-02T15:30:00Z,27.9396,-96.8429,2.0,32.2572,11111222 
TABS,ioos:station:wmo:42048:1,2016-01-02T16:00:00Z,27.9396,-96.8429,2.0,32.2251,11111222 
TABS,ioos:station:wmo:42048:1,2016-01-02T16:30:00Z,27.9396,-96.8429,2.0,32.172,11111222 
TABS,ioos:station:wmo:42048:1,2016-01-02T17:00:00Z,27.9396,-96.8429,2.0,32.1252,11111222 
TABS,ioos:station:wmo:42048:1,2016-01-02T17:30:00Z,27.9396,-96.8429,2.0,32.1001,11111222 
TABS,ioos:station:wmo:42048:1,2016-01-02T18:00:00Z,27.9396,-96.8429,2.0,32.1041,11111222 
TABS,ioos:station:wmo:42048:1,2016-01-02T18:30:00Z,27.9396,-96.8429,2.0,32.0858,11111222 
TABS,ioos:station:wmo:42048:1,2016-01-02T19:00:00Z,27.9396,-96.8429,2.0,32.0864,11111222 
TABS,ioos:station:wmo:42048:1,2016-01-02T19:30:00Z,27.9396,-96.8429,2.0,32.0773,11111222 
TABS,ioos:station:wmo:42048:1,2016-01-02T20:00:00Z,27.9396,-96.8429,2.0,32.0804,11111222 
TABS,ioos:station:wmo:42048:1,2016-01-02T20:30:00Z,27.9396,-96.8429,2.0,32.0781,11111222 
TABS,ioos:station:wmo:42048:1,2016-01-02T21:00:00Z,27.9396,-96.8429,2.0,32.0852,11111222 
TABS,ioos:station:wmo:42048:1,2016-01-02T21:30:00Z,27.9396,-96.8429,2.0,32.0864,11111222 
TABS,ioos:station:wmo:42048:1,2016-01-02T22:00:00Z,27.9396,-96.8429,2.0,32.0874,11111222 
TABS,ioos:station:wmo:42048:1,2016-01-02T22:30:00Z,27.9396,-96.8429,2.0,32.0975,11111222 
TABS,ioos:station:wmo:42048:1,2016-01-02T23:00:00Z,27.9396,-96.8429,2.0,32.0972,11111222 
TABS,ioos:station:wmo:42048:1,2016-01-02T23:30:00Z,27.9396,-96.8429,2.0,32.1215,11111222 
TABS,ioos:station:wmo:42048:1,2016-01-03T00:00:00Z,27.9396,-96.8429,2.0,32.1854,11111222 
TABS,ioos:station:wmo:42048:1,2016-01-03T00:30:00Z,27.9396,-96.8429,2.0,32.1892,11111222 
TABS,ioos:station:wmo:42048:1,2016-01-03T01:00:00Z,27.9396,-96.8429,2.0,32.2643,11111222 
TABS,ioos:station:wmo:42048:1,2016-01-03T01:30:00Z,27.9396,-96.8429,2.0,32.2403,11111222 
TABS,ioos:station:wmo:42048:1,2016-01-03T02:00:00Z,27.9396,-96.8429,2.0,32.2264,11111222 
TABS,ioos:station:wmo:42048:1,2016-01-03T02:30:00Z,27.9396,-96.8429,2.0,32.2086,11111222 
TABS,ioos:station:wmo:42048:1,2016-01-03T03:00:00Z,27.9396,-96.8429,2.0,32.1926,11111222 
TABS,ioos:station:wmo:42048:1,2016-01-03T03:30:00Z,27.9396,-96.8429,2.0,32.1681,11111222 
TABS,ioos:station:wmo:42048:1,2016-01-03T04:00:00Z,27.9396,-96.8429,2.0,32.1593,11111222 
TABS,ioos:station:wmo:42048:1,2016-01-03T04:30:00Z,27.9396,-96.8429,2.0,32.1474,11111222 
TABS,ioos:station:wmo:42048:1,2016-01-03T05:00:00Z,27.9396,-96.8429,2.0,32.1349,11111222 
TABS,ioos:station:wmo:42048:1,2016-01-03T05:30:00Z,27.9396,-96.8429,2.0,32.1252,11111222 
TABS,ioos:station:wmo:42048:1,2016-01-03T06:00:00Z,27.9396,-96.8429,2.0,32.1157,11111222 
TABS,ioos:station:wmo:42048:1,2016-01-03T06:30:00Z,27.9396,-96.8429,2.0,32.1002,11111222 
TABS,ioos:station:wmo:42048:1,2016-01-03T07:00:00Z,27.9396,-96.8429,2.0,32.1016,11111222 
TABS,ioos:station:wmo:42048:1,2016-01-03T07:30:00Z,27.9396,-96.8429,2.0,32.0837,11111222 
TABS,ioos:station:wmo:42048:1,2016-01-03T08:00:00Z,27.9396,-96.8429,2.0,32.0773,11111222 
TABS,ioos:station:wmo:42048:1,2016-01-03T08:30:00Z,27.9396,-96.8429,2.0,32.0514,11111222 
TABS,ioos:station:wmo:42048:1,2016-01-03T09:00:00Z,27.9396,-96.8429,2.0,32.0275,11111222 
TABS,ioos:station:wmo:42048:1,2016-01-03T09:30:00Z,27.9396,-96.8429,2.0,31.9911,11111222 
TABS,ioos:station:wmo:42048:1,2016-01-03T10:00:00Z,27.9396,-96.8429,2.0,31.9977,11111222 
TABS,ioos:station:wmo:42048:1,2016-01-03T10:30:00Z,27.9396,-96.8429,2.0,31.9873,11111222 
TABS,ioos:station:wmo:42048:1,2016-01-03T11:00:00Z,27.9396,-96.8429,2.0,31.9653,11111222 
TABS,ioos:station:wmo:42048:1,2016-01-03T11:30:00Z,27.9396,-96.8429,2.0,31.9681,11111222 
TABS,ioos:station:wmo:42048:1,2016-01-03T12:00:00Z,27.9396,-96.8429,2.0,31.9665,11111222 
TABS,ioos:station:wmo:42048:1,2016-01-03T12:30:00Z,27.9396,-96.8429,2.0,31.966,11111222 
TABS,ioos:station:wmo:42048:1,2016-01-03T13:00:00Z,27.9396,-96.8429,2.0,31.9554,11111222 
TABS,ioos:station:wmo:42048:1,2016-01-03T13:30:00Z,27.9396,-96.8429,2.0,31.9404,11111222 
TABS,ioos:station:wmo:42048:1,2016-01-03T14:00:00Z,27.9396,-96.8429,2.0,31.9114,11111222 
TABS,ioos:station:wmo:42048:1,2016-01-03T14:30:00Z,27.9396,-96.8429,2.0,31.9116,11111222 
TABS,ioos:station:wmo:42048:1,2016-01-03T15:00:00Z,27.9396,-96.8429,2.0,31.9149,11111222 
TABS,ioos:station:wmo:42048:1,2016-01-03T15:30:00Z,27.9396,-96.8429,2.0,31.931,11111222 
TABS,ioos:station:wmo:42048:1,2016-01-03T16:00:00Z,27.9396,-96.8429,2.0,31.955,11111222 
TABS,ioos:station:wmo:42048:1,2016-01-03T16:30:00Z,27.9396,-96.8429,2.0,31.9584,11111222 
TABS,ioos:station:wmo:42048:1,2016-01-03T17:00:00Z,27.9396,-96.8429,2.0,31.9344,11111222 
TABS,ioos:station:wmo:42048:1,2016-01-03T17:30:00Z,27.9396,-96.8429,2.0,31.9162,11111222 
TABS,ioos:station:wmo:42048:1,2016-01-03T18:00:00Z,27.9396,-96.8429,2.0,31.9205,11111222 
TABS,ioos:station:wmo:42048:1,2016-01-03T18:30:00Z,27.9396,-96.8429,2.0,31.8986,11111222 
TABS,ioos:station:wmo:42048:1,2016-01-03T19:00:00Z,27.9396,-96.8429,2.0,31.8896,11111222 
TABS,ioos:station:wmo:42048:1,2016-01-03T19:30:00Z,27.9396,-96.8429,2.0,31.8841,11111222 
TABS,ioos:station:wmo:42048:1,2016-01-03T20:00:00Z,27.9396,-96.8429,2.0,31.8752,11111222 
TABS,ioos:station:wmo:42048:1,2016-01-03T20:30:00Z,27.9396,-96.8429,2.0,31.8688,11111222 
TABS,ioos:station:wmo:42048:1,2016-01-03T21:00:00Z,27.9396,-96.8429,2.0,31.8688,11111222 
TABS,ioos:station:wmo:42048:1,2016-01-03T21:30:00Z,27.9396,-96.8429,2.0,31.8893,11111222 
TABS,ioos:station:wmo:42048:1,2016-01-03T22:00:00Z,27.9396,-96.8429,2.0,31.9476,11111222 
TABS,ioos:station:wmo:42048:1,2016-01-03T22:30:00Z,27.9396,-96.8429,2.0,31.9353,11111222 
TABS,ioos:station:wmo:42048:1,2016-01-03T23:00:00Z,27.9396,-96.8429,2.0,31.9264,11111222 
TABS,ioos:station:wmo:42048:1,2016-01-03T23:30:00Z,27.9396,-96.8429,2.0,31.9369,11111222 
TABS,ioos:station:wmo:42048:1,2016-01-04T00:00:00Z,27.9396,-96.8429,2.0,31.968,11111222 
TABS,ioos:station:wmo:42048:1,2016-01-04T00:30:00Z,27.9396,-96.8429,2.0,31.9638,11111222 
TABS,ioos:station:wmo:42048:1,2016-01-04T01:00:00Z,27.9396,-96.8429,2.0,31.9086,11111222 
TABS,ioos:station:wmo:42048:1,2016-01-04T01:30:00Z,27.9396,-96.8429,2.0,31.8556,11111222 
TABS,ioos:station:wmo:42048:1,2016-01-04T02:00:00Z,27.9396,-96.8429,2.0,31.8611,11111222 
TABS,ioos:station:wmo:42048:1,2016-01-04T02:30:00Z,27.9396,-96.8429,2.0,31.8445,11111222 
TABS,ioos:station:wmo:42048:1,2016-01-04T03:00:00Z,27.9396,-96.8429,2.0,31.8448,11111222 
TABS,ioos:station:wmo:42048:1,2016-01-04T03:30:00Z,27.9396,-96.8429,2.0,31.8638,11111222 
TABS,ioos:station:wmo:42048:1,2016-01-04T04:00:00Z,27.9396,-96.8429,2.0,31.8801,11111222 
TABS,ioos:station:wmo:42048:1,2016-01-04T04:30:00Z,27.9396,-96.8429,2.0,31.9018,11111222 
TABS,ioos:station:wmo:42048:1,2016-01-04T05:00:00Z,27.9396,-96.8429,2.0,31.9125,11111222 
TABS,ioos:station:wmo:42048:1,2016-01-04T05:30:00Z,27.9396,-96.8429,2.0,31.9137,11111222 
TABS,ioos:station:wmo:42048:1,2016-01-04T06:00:00Z,27.9396,-96.8429,2.0,31.9337,11111222 
TABS,ioos:station:wmo:42048:1,2016-01-04T06:30:00Z,27.9396,-96.8429,2.0,31.9263,11111222 
TABS,ioos:station:wmo:42048:1,2016-01-04T07:00:00Z,27.9396,-96.8429,2.0,31.9143,11111222 
TABS,ioos:station:wmo:42048:1,2016-01-04T07:30:00Z,27.9396,-96.8429,2.0,31.8416,11111222 
TABS,ioos:station:wmo:42048:1,2016-01-04T08:00:00Z,27.9396,-96.8429,2.0,31.8051,11111222 
TABS,ioos:station:wmo:42048:1,2016-01-04T08:30:00Z,27.9396,-96.8429,2.0,31.7482,11111222 
TABS,ioos:station:wmo:42048:1,2016-01-04T09:00:00Z,27.9396,-96.8429,2.0,31.7291,11111222 
TABS,ioos:station:wmo:42048:1,2016-01-04T09:30:00Z,27.9396,-96.8429,2.0,31.7121,11111222 
TABS,ioos:station:wmo:42048:1,2016-01-04T10:00:00Z,27.9396,-96.8429,2.0,31.7061,11111222 
TABS,ioos:station:wmo:42048:1,2016-01-04T10:30:00Z,27.9396,-96.8429,2.0,31.7361,11111222 
TABS,ioos:station:wmo:42048:1,2016-01-04T11:00:00Z,27.9396,-96.8429,2.0,31.755,11111222 
TABS,ioos:station:wmo:42048:1,2016-01-04T11:30:00Z,27.9396,-96.8429,2.0,31.7394,11111222 
TABS,ioos:station:wmo:42048:1,2016-01-04T12:00:00Z,27.9396,-96.8429,2.0,31.7159,11111222 
TABS,ioos:station:wmo:42048:1,2016-01-04T12:30:00Z,27.9396,-96.8429,2.0,31.6931,11111222 
TABS,ioos:station:wmo:42048:1,2016-01-04T13:00:00Z,27.9396,-96.8429,2.0,31.7329,11111222 
TABS,ioos:station:wmo:42048:1,2016-01-04T13:30:00Z,27.9396,-96.8429,2.0,31.71,11111222 
TABS,ioos:station:wmo:42048:1,2016-01-04T14:00:00Z,27.9396,-96.8429,2.0,31.7438,11111222 
TABS,ioos:station:wmo:42048:1,2016-01-04T14:30:00Z,27.9396,-96.8429,2.0,31.763,11111222 
TABS,ioos:station:wmo:42048:1,2016-01-04T15:00:00Z,27.9396,-96.8429,2.0,31.7344,11111222 
TABS,ioos:station:wmo:42048:1,2016-01-04T15:30:00Z,27.9396,-96.8429,2.0,31.7233,11111222 
TABS,ioos:station:wmo:42048:1,2016-01-04T16:00:00Z,27.9396,-96.8429,2.0,31.8438,11111222 
TABS,ioos:station:wmo:42048:1,2016-01-04T16:30:00Z,27.9396,-96.8429,2.0,31.7705,11111222 
TABS,ioos:station:wmo:42048:1,2016-01-04T17:00:00Z,27.9396,-96.8429,2.0,31.8533,11111222 
TABS,ioos:station:wmo:42048:1,2016-01-04T17:30:00Z,27.9396,-96.8429,2.0,31.9128,11111222 
TABS,ioos:station:wmo:42048:1,2016-01-04T18:00:00Z,27.9396,-96.8429,2.0,31.8338,11111222 
TABS,ioos:station:wmo:42048:1,2016-01-04T18:30:00Z,27.9396,-96.8429,2.0,31.8988,11111222 
TABS,ioos:station:wmo:42048:1,2016-01-04T19:00:00Z,27.9396,-96.8429,2.0,31.9479,11111222 
TABS,ioos:station:wmo:42048:1,2016-01-04T19:30:00Z,27.9396,-96.8429,2.0,31.991,11111222 
TABS,ioos:station:wmo:42048:1,2016-01-04T20:00:00Z,27.9396,-96.8429,2.0,31.9273,11111222 
TABS,ioos:station:wmo:42048:1,2016-01-04T20:30:00Z,27.9396,-96.8429,2.0,32.0096,11111222 
TABS,ioos:station:wmo:42048:1,2016-01-04T21:00:00Z,27.9396,-96.8429,2.0,32.0588,11111222 
TABS,ioos:station:wmo:42048:1,2016-01-04T21:30:00Z,27.9396,-96.8429,2.0,32.1077,11111222 
TABS,ioos:station:wmo:42048:1,2016-01-04T22:00:00Z,27.9396,-96.8429,2.0,32.1629,11111222 
TABS,ioos:station:wmo:42048:1,2016-01-04T22:30:00Z,27.9396,-96.8429,2.0,32.2307,11111222 
TABS,ioos:station:wmo:42048:1,2016-01-04T23:00:00Z,27.9396,-96.8429,2.0,32.2291,11111222 
TABS,ioos:station:wmo:42048:1,2016-01-04T23:30:00Z,27.9396,-96.8429,2.0,32.2813,11111222 
TABS,ioos:station:wmo:42048:1,2016-01-05T00:00:00Z,27.9396,-96.8429,2.0,32.4048,11111222 
TABS,ioos:station:wmo:42048:1,2016-01-05T00:30:00Z,27.9396,-96.8429,2.0,32.4082,11111222 
TABS,ioos:station:wmo:42048:1,2016-01-05T01:00:00Z,27.9396,-96.8429,2.0,32.3947,11111222 
TABS,ioos:station:wmo:42048:1,2016-01-05T01:30:00Z,27.9396,-96.8429,2.0,32.3874,11111222 
TABS,ioos:station:wmo:42048:1,2016-01-05T02:00:00Z,27.9396,-96.8429,2.0,32.3672,11111222 
TABS,ioos:station:wmo:42048:1,2016-01-05T02:30:00Z,27.9396,-96.8429,2.0,32.3607,11111222 
TABS,ioos:station:wmo:42048:1,2016-01-05T03:00:00Z,27.9396,-96.8429,2.0,32.3567,11111222 
TABS,ioos:station:wmo:42048:1,2016-01-05T03:30:00Z,27.9396,-96.8429,2.0,32.3454,11111222 
TABS,ioos:station:wmo:42048:1,2016-01-05T04:00:00Z,27.9396,-96.8429,2.0,32.335,11111222 
TABS,ioos:station:wmo:42048:1,2016-01-05T04:30:00Z,27.9396,-96.8429,2.0,32.3271,11111222 
TABS,ioos:station:wmo:42048:1,2016-01-05T05:00:00Z,27.9396,-96.8429,2.0,32.3188,11111222 
TABS,ioos:station:wmo:42048:1,2016-01-05T05:30:00Z,27.9396,-96.8429,2.0,32.3113,11111222 
TABS,ioos:station:wmo:42048:1,2016-01-05T06:00:00Z,27.9396,-96.8429,2.0,32.3066,11111222 
TABS,ioos:station:wmo:42048:1,2016-01-05T06:30:00Z,27.9396,-96.8429,2.0,32.3002,11111222 
TABS,ioos:station:wmo:42048:1,2016-01-05T07:00:00Z,27.9396,-96.8429,2.0,32.2869,11111222 
TABS,ioos:station:wmo:42048:1,2016-01-05T07:30:00Z,27.9396,-96.8429,2.0,32.2776,11111222 
TABS,ioos:station:wmo:42048:1,2016-01-05T08:00:00Z,27.9396,-96.8429,2.0,32.2681,11111222 
TABS,ioos:station:wmo:42048:1,2016-01-05T08:30:00Z,27.9396,-96.8429,2.0,32.2579,11111222 
TABS,ioos:station:wmo:42048:1,2016-01-05T09:00:00Z,27.9396,-96.8429,2.0,32.2522,11111222 
TABS,ioos:station:wmo:42048:1,2016-01-05T09:30:00Z,27.9396,-96.8429,2.0,32.2437,11111222 
TABS,ioos:station:wmo:42048:1,2016-01-05T10:00:00Z,27.9396,-96.8429,2.0,32.2262,11111222 
TABS,ioos:station:wmo:42048:1,2016-01-05T10:30:00Z,27.9396,-96.8429,2.0,32.1792,11111222 
TABS,ioos:station:wmo:42048:1,2016-01-05T11:00:00Z,27.9396,-96.8429,2.0,32.1479,11111222 
TABS,ioos:station:wmo:42048:1,2016-01-05T11:30:00Z,27.9396,-96.8429,2.0,32.1164,11111222 
TABS,ioos:station:wmo:42048:1,2016-01-05T12:00:00Z,27.9396,-96.8429,2.0,32.1018,11111222 
TABS,ioos:station:wmo:42048:1,2016-01-05T12:30:00Z,27.9396,-96.8429,2.0,32.0703,11111222 
TABS,ioos:station:wmo:42048:1,2016-01-05T13:00:00Z,27.9396,-96.8429,2.0,32.0108,11111222 
TABS,ioos:station:wmo:42048:1,2016-01-05T13:30:00Z,27.9396,-96.8429,2.0,31.9655,11111222 
TABS,ioos:station:wmo:42048:1,2016-01-05T14:00:00Z,27.9396,-96.8429,2.0,31.9276,11111222 
TABS,ioos:station:wmo:42048:1,2016-01-05T14:30:00Z,27.9396,-96.8429,2.0,31.8898,11111222 
TABS,ioos:station:wmo:42048:1,2016-01-05T15:00:00Z,27.9396,-96.8429,2.0,31.8501,11111222 
TABS,ioos:station:wmo:42048:1,2016-01-05T15:30:00Z,27.9396,-96.8429,2.0,31.8156,11111222 
TABS,ioos:station:wmo:42048:1,2016-01-05T16:00:00Z,27.9396,-96.8429,2.0,31.7975,11111222 
TABS,ioos:station:wmo:42048:1,2016-01-05T16:30:00Z,27.9396,-96.8429,2.0,31.7292,11111222 
TABS,ioos:station:wmo:42048:1,2016-01-05T17:00:00Z,27.9396,-96.8429,2.0,31.671,11111222 
TABS,ioos:station:wmo:42048:1,2016-01-05T17:30:00Z,27.9396,-96.8429,2.0,31.6314,11111222 
TABS,ioos:station:wmo:42048:1,2016-01-05T18:00:00Z,27.9396,-96.8429,2.0,31.6,11111222 
TABS,ioos:station:wmo:42048:1,2016-01-05T18:30:00Z,27.9396,-96.8429,2.0,31.566,11111222 
TABS,ioos:station:wmo:42048:1,2016-01-05T19:00:00Z,27.9396,-96.8429,2.0,31.5734,11111222 
TABS,ioos:station:wmo:42048:1,2016-01-05T19:30:00Z,27.9396,-96.8429,2.0,31.5763,11111222 
TABS,ioos:station:wmo:42048:1,2016-01-05T20:00:00Z,27.9396,-96.8429,2.0,31.5939,11111222 
TABS,ioos:station:wmo:42048:1,2016-01-05T20:30:00Z,27.9396,-96.8429,2.0,31.6058,11111222 
TABS,ioos:station:wmo:42048:1,2016-01-05T21:00:00Z,27.9396,-96.8429,2.0,31.5854,11111222 
TABS,ioos:station:wmo:42048:1,2016-01-05T21:30:00Z,27.9396,-96.8429,2.0,31.5475,11111222 
TABS,ioos:station:wmo:42048:1,2016-01-05T22:00:00Z,27.9396,-96.8429,2.0,31.498,11111222 
TABS,ioos:station:wmo:42048:1,2016-01-05T22:30:00Z,27.9396,-96.8429,2.0,31.4302,11111222 
TABS,ioos:station:wmo:42048:1,2016-01-05T23:00:00Z,27.9396,-96.8429,2.0,31.3769,11111222 
TABS,ioos:station:wmo:42048:1,2016-01-05T23:30:00Z,27.9396,-96.8429,2.0,31.311,11111222 
TABS,ioos:station:wmo:42048:1,2016-01-06T00:00:00Z,27.9396,-96.8429,2.0,31.2746,11111222 
TABS,ioos:station:wmo:42048:1,2016-01-06T00:30:00Z,27.9396,-96.8429,2.0,31.2589,11111222 
TABS,ioos:station:wmo:42048:1,2016-01-06T01:00:00Z,27.9396,-96.8429,2.0,31.2354,11111222 
TABS,ioos:station:wmo:42048:1,2016-01-06T01:30:00Z,27.9396,-96.8429,2.0,31.2216,11111222 
TABS,ioos:station:wmo:42048:1,2016-01-06T02:00:00Z,27.9396,-96.8429,2.0,31.2221,11111222 
TABS,ioos:station:wmo:42048:1,2016-01-06T02:30:00Z,27.9396,-96.8429,2.0,31.2207,11111222 
TABS,ioos:station:wmo:42048:1,2016-01-06T03:00:00Z,27.9396,-96.8429,2.0,31.2318,11111222 
TABS,ioos:station:wmo:42048:1,2016-01-06T03:30:00Z,27.9396,-96.8429,2.0,31.229,11111222 
TABS,ioos:station:wmo:42048:1,2016-01-06T04:00:00Z,27.9396,-96.8429,2.0,31.1915,11111222 
TABS,ioos:station:wmo:42048:1,2016-01-06T04:30:00Z,27.9396,-96.8429,2.0,31.1856,11111222 
TABS,ioos:station:wmo:42048:1,2016-01-06T05:00:00Z,27.9396,-96.8429,2.0,31.2384,11111222 
TABS,ioos:station:wmo:42048:1,2016-01-06T05:30:00Z,27.9396,-96.8429,2.0,31.2373,11111222 
TABS,ioos:station:wmo:42048:1,2016-01-06T06:00:00Z,27.9396,-96.8429,2.0,31.2425,11111222 
TABS,ioos:station:wmo:42048:1,2016-01-06T06:30:00Z,27.9396,-96.8429,2.0,31.2601,11111222 
TABS,ioos:station:wmo:42048:1,2016-01-06T07:00:00Z,27.9396,-96.8429,2.0,31.2605,11111222 
TABS,ioos:station:wmo:42048:1,2016-01-06T07:30:00Z,27.9396,-96.8429,2.0,31.3433,11111222 
TABS,ioos:station:wmo:42048:1,2016-01-06T08:00:00Z,27.9396,-96.8429,2.0,31.3774,11111222 
TABS,ioos:station:wmo:42048:1,2016-01-06T08:30:00Z,27.9396,-96.8429,2.0,31.3696,11111222 
TABS,ioos:station:wmo:42048:1,2016-01-06T09:00:00Z,27.9396,-96.8429,2.0,31.2971,11111222 
TABS,ioos:station:wmo:42048:1,2016-01-06T09:30:00Z,27.9396,-96.8429,2.0,31.2507,11111222 
TABS,ioos:station:wmo:42048:1,2016-01-06T10:00:00Z,27.9396,-96.8429,2.0,31.1512,11111222 
TABS,ioos:station:wmo:42048:1,2016-01-06T10:30:00Z,27.9396,-96.8429,2.0,31.0506,11111222 
TABS,ioos:station:wmo:42048:1,2016-01-06T11:00:00Z,27.9396,-96.8429,2.0,30.9664,11111222 
TABS,ioos:station:wmo:42048:1,2016-01-06T11:30:00Z,27.9396,-96.8429,2.0,30.9402,11111222 
TABS,ioos:station:wmo:42048:1,2016-01-06T12:00:00Z,27.9396,-96.8429,2.0,30.964,11111222 